Weather in Novaya Mayna

Russia / Ulyanovsk Oblast     54°08′53″N   49°46′16″E
temp.,
°C
wind,
m/s
gust,
m/s
humid.,
%
clouds,
%
prec.,
mm/h
press.,
hPa
HPBL,
m
1 august, sun
sun101:00+21w38770 0.0 1010176
04:00+18wsw24825 0.0 101069
07:00+21sw36675 0.0 1012190
10:00+28wsw474365 0.0 10121233
13:00+31w683134 0.0 10112544
16:00+31wnw572923 0.0 10122508
19:00+27nw363843 0.0 1012579
22:00+21nnw1251100 0.0 101312
2 august, mon
mon201:00+19e115779 0.0 101411
04:00+18sw11619 0.0 101411
07:00+22s125488 0.0 101579
10:00+28sw233997 0.0 1015783
13:00+32wsw242674 0.0 10141984
16:00+34sw342310 0.0 10122712
19:00+31ese01340 0.0 101114
22:00+23w22531 0.0 101214
3 august, tue
tue301:00+22ese225538 0.0 101123
04:00+22sse235349 0.0 101134
07:00+25se244725 0.0 1011128
10:00+34s47255 0.0 1010903
13:00+37s361799 0.0 10083594
16:00+37wsw571716 0.0 10073078
19:00+28nw473899 0.3 1007120
22:00+24nne375892 0.4 1010186
4 august, wed
wed401:00+22sse226586 0.0 100941
04:00+20w4107598 0.1 1011237
07:00+21nw3874100 0.1 1011261
10:00+25nw3558100 0.3 1011540
13:00+28w3444100 0.0 1011919
16:00+27wnw4546100 0.0 1010873
19:00+26nw46540 0.0 1011914
22:00+20nnw37820 0.0 1013156
5 august, thu
thu501:00+17nw37900 0.0 1014137
04:00+16nnw38924 0.0 1014163
07:00+19n37735 0.0 1015254
10:00+25n46440 0.0 10141430
13:00+28n66308 0.0 10142396
16:00+28n662929 0.0 10142562
19:00+25nnw57370 0.0 10151219
22:00+18nnw310570 0.0 1016206